Location: Camp Crooked Creek
(37.9149°N, 85.6607°W)
Time: 20:08:05
(UTC-04:00)

Lacrosse 4 - Visible Passes

Search period start: 20 April 2014 00:00
Search period end: 30 April 2014 00:00
Orbit: 673 x 680 km, 68.0° (Epoch: 25 February)

Date Brightness Start Highest point End Pass type
(mag) Time Alt. Az. Time Alt. Az. Time Alt. Az.
24 Apr 4.4 06:13:19 10° SSE 06:16:28 18° ESE 06:19:36 10° ENE visible
26 Apr 4.3 05:44:00 10° SE 05:47:05 17° ESE 05:50:11 10° ENE visible
27 Apr 2.5 06:17:46 10° S 06:22:24 55° ESE 06:27:04 10° NE visible
28 Apr 4.3 05:14:40 10° SE 05:17:43 17° ESE 05:20:45 10° ENE visible
29 Apr 2.4 05:48:24 10° S 05:53:01 54° ESE 05:57:41 10° NE visible
